VHOOO YAYE-YAYE

Flight info

Callsign VHOOO
Flight time 0h 3m
Altitude 5000
Route /
Aircraft BALL/L-SF/C

Departure

Time 2026-04-20 06:51
Airport Ayers Rock Connellan Airport (YAYE)

Arrival

Time 2026-04-20 06:55
Airport Ayers Rock Connellan Airport (YAYE)
Time Latitude Longitude Altitude Speed Heading
2026-04-20 06:42 -25.18909 130.97654 1607 ft 0 kts 271°
2026-04-20 06:45 -25.18910 130.97652 1607 ft 6 kts 261°
2026-04-20 06:45 -25.18913 130.97580 1606 ft 9 kts 274°
2026-04-20 06:46 -25.18914 130.97534 1620 ft 0 kts 242°
2026-04-20 06:46 -25.18914 130.97535 1619 ft 0 kts 255°
2026-04-20 06:46 -25.18914 130.97546 1706 ft 2 kts 255°
2026-04-20 06:46 -25.18913 130.97561 1798 ft 2 kts 255°
2026-04-20 06:47 -25.18905 130.97588 1876 ft 5 kts 255°
2026-04-20 06:47 -25.18859 130.97540 1916 ft 14 kts 283°
2026-04-20 06:47 -25.18802 130.97474 1935 ft 15 kts 270°
2026-04-20 06:47 -25.18748 130.97373 2374 ft 21 kts 282°
2026-04-20 06:48 -25.18679 130.97354 5145 ft 36 kts 251°
2026-04-20 06:48 -25.18632 130.97447 8505 ft 45 kts 283°
2026-04-20 06:48 -25.18640 130.97568 11979 ft 22 kts 268°
2026-04-20 06:48 -25.18614 130.97577 15187 ft 32 kts 245°
2026-04-20 06:49 -25.18625 130.97586 18128 ft 30 kts 164°
2026-04-20 06:49 -25.18625 130.97591 20477 ft 18 kts 75°
2026-04-20 06:49 -25.18644 130.97587 22159 ft 26 kts 38°
2026-04-20 06:49 -25.18652 130.97576 22688 ft 16 kts 66°
2026-04-20 06:50 -25.18643 130.97574 22963 ft 8 kts 132°
2026-04-20 06:50 -25.18650 130.97575 23229 ft 2 kts 173°
2026-04-20 06:50 -25.18652 130.97576 23375 ft 0 kts 180°
2026-04-20 06:50 -25.18653 130.97575 23526 ft 0 kts 180°
2026-04-20 06:51 -25.18654 130.97575 23659 ft 0 kts 180°
2026-04-20 06:51 -25.18655 130.97575 23765 ft 0 kts 180°
2026-04-20 06:51 -25.18626 130.97578 23869 ft 17 kts 182°
2026-04-20 06:51 -25.18530 130.96629 23523 ft 149 kts 216°
2026-04-20 06:52 -25.18418 130.95492 22810 ft 148 kts 221°
2026-04-20 06:52 -25.18299 130.94391 20959 ft 145 kts 221°
2026-04-20 06:52 -25.18171 130.93294 18905 ft 143 kts 220°
2026-04-20 06:52 -25.18063 130.92262 16735 ft 69 kts 233°
2026-04-20 06:53 -25.18382 130.92646 15997 ft 31 kts 181°
2026-04-20 06:53 -25.18389 130.92644 14741 ft 0 kts 175°
2026-04-20 06:53 -25.18414 130.92602 12501 ft 3 kts 184°
2026-04-20 06:53 -25.18418 130.92595 9964 ft 1 kts 184°
2026-04-20 06:54 -25.18418 130.92591 7275 ft 0 kts 184°
2026-04-20 06:54 -25.18418 130.92593 4693 ft 9 kts 184°
2026-04-20 06:54 -25.18417 130.92758 3673 ft 26 kts 183°
2026-04-20 06:54 -25.18418 130.92951 3506 ft 25 kts 183°
2026-04-20 06:55 -25.18417 130.93141 3295 ft 24 kts 183°
2026-04-20 06:55 -25.18414 130.93328 3066 ft 24 kts 183°
2026-04-20 06:55 -25.18409 130.93512 2829 ft 24 kts 183°
2026-04-20 06:55 -25.18399 130.93698 2589 ft 26 kts 183°
2026-04-20 06:56 -25.18399 130.93921 2394 ft 28 kts 182°
2026-04-20 06:56 -25.18395 130.94118 2151 ft 22 kts 182°
2026-04-20 06:56 -25.18392 130.94294 1933 ft 36 kts 181°
2026-04-20 06:56 -25.18399 130.94498 1612 ft 19 kts 177°
2026-04-20 06:57 -25.18401 130.94614 1614 ft 5 kts 203°
2026-04-20 06:57 -25.18413 130.94639 1614 ft 0 kts 186°